Regional Weather Roundup
Issued by NWS

Home | Current Version | Previous Version | Graphics & Text | Print | Product List | Glossary On
Versions: 1 2 3 4 5 6 7 8 9 10 11 12 13 14 15 16 17 18 19 20 21 22 23 24 25 26 27 28 29 30 31 32 33 34 35 36 37 38 39 40 41 42 43 44 45 46 47 48 49 50
000
ASUS43 KMPX 242210
RWRMN
WEATHER ROUNDUP FOR MINNESOTA
NATIONAL WEATHER SERVICE TWIN CITIES/CHANHASSEN MN
500 PM CDT SUN SEP 24 2017


NOTE: "FAIR" INDICATES FEW OR NO CLOUDS BELOW 12,000 FEET WITH NO
SIGNIFICANT WEATHER AND/OR OBSTRUCTIONS TO VISIBILITY. N/A MEANS
CURRENT SKY AND/OR WEATHER CONDITIONS ARE NOT AVAILABLE.

MNZ060>063-068>070-242300-
   Twin Cities Metro

CITY           SKY/WX    TMP DP  RH WIND       PRES   REMARKS
TWIN CITIES    PTSUNNY   90  62  39 S15G25    29.84F HX  90
ST PAUL        MOSUNNY   87  63  44 SE12      29.84F
CRYSTAL        SUNNY     86  61  42 S15       29.82F
BLAINE         PTSUNNY   90  63  40 S15G23    29.84F HX  90
LAKEVILLE      SUNNY     86  63  45 S6        29.85F
EDEN PRAIRIE   MOSUNNY   89  63  41 S15       29.82F HX  90
SOUTH ST PAUL  MOSUNNY   88  58  36 S10G16    29.84F
LAKE ELMO      FAIR      88  64  45 S14       29.87S
$$
MNZ001>005-007-008-013>017-022>024-027-028-242300-
   Northwest Minnesota

CITY           SKY/WX    TMP DP  RH WIND       PRES   REMARKS
BEMIDJI        CLOUDY    68  64  85 SW9G16    29.82R
HALLOCK        DRIZZLE   52  52 100 NW20G25   29.90R
ROSEAU         RAIN      55  50  82 NW12      29.84R
THIEF RVR FALL LGT RAIN  55  53  93 NW14      29.86R
CROOKSTON      LGT RAIN  54  52  94 NW15G23   29.89R
FOSSTON        DRIZZLE   55  55 100 W9        29.84F
DETROIT LAKES  RAIN      59  55  88 NW7       29.87S
MOORHEAD       DRIZZLE   54  52  94 NW18      29.91R
PARK RAPIDS    LGT RAIN  70  65  84 SW12G21   29.82F
MAHNOMEN       LGT RAIN  56  56  97 W10       29.85F
$$
MNZ006-009>011-018-025>026-242300-
   North Central Minnesota

CITY           SKY/WX    TMP DP  RH WIND       PRES   REMARKS
BAUDETTE       CLOUDY    60  60 100 N3        29.80S
FLAG ISLAND    DRIZZLE   55  55 100 NW9       29.81S
INTL FALLS     CLOUDY    73  67  81 CALM      29.77F
WASKISH        CLOUDY    66  63  88 W8        29.80S
BIG FORK       CLOUDY    70  64  83 SW9G22    29.80R
LONGVILLE      CLOUDY    72  68  88 SW3       29.82F
GRAND RAPIDS   CLOUDY    77  68  73 S10       29.82F
CRANE LAKE     CLOUDY    79  66  65 S7        29.80F
ORR            MOSUNNY   81  64  57 S7        29.77F
WALKER         CLOUDY    72  65  80 W12       29.81S
$$
MNZ012-019>021-037-242300-
   Northeast Minnesota

CITY           SKY/WX    TMP DP  RH WIND       PRES   REMARKS
DULUTH         CLOUDY    77  67  71 S8        29.86F
ELY            PTSUNNY   81  64  57 S13G21    29.84F
HIBBING        CLOUDY    79  64  60 S8        29.82F
EVELETH        MOSUNNY   81  52  37 S9        29.84F
DULUTH HARBOR  MOSUNNY   66  63  88 NE8       29.86F
GRAND MARAIS     N/A     66  62  87 NE6       29.88S
$$
MNZ029>031-032-039>041-046>048-054>057-064-242300-
   West Central Minnesota

CITY           SKY/WX    TMP DP  RH WIND       PRES   REMARKS
FERGUS FALLS   CLOUDY    57  57 100 NW13      29.89R
WHEATON        CLOUDY    57  54  88 W15       29.93R
ALEXANDRIA     CLOUDY    68  66  93 W7        29.87R
ELBOW LAKE     CLOUDY    63  62  99 NW10      29.88S
WADENA         CLOUDY    66  66 100 W9        29.84S
GLENWOOD       HVY RAIN  66  66 100 W13       29.86R
APPLETON       PTSUNNY   70  59  68 W17       29.87R
BENSON         CLOUDY    72  64  78 NW8       29.87F
ORTONVILLE     CLOUDY    63  57  82 W13G22    29.89R
MADISON        PTSUNNY   70  61  73 W17       29.89R
WILLMAR        FAIR      70  66  88 W12       29.88R
$$
MNZ033>034-036-042>043-049>051-058-059-242300-
   Central Minnesota

CITY           SKY/WX    TMP DP  RH WIND       PRES   REMARKS
ST CLOUD       MOSUNNY   83  66  56 S14       29.81F
SAUK CENTRE    CLOUDY    71  68  93 W20G25    29.86R VSB 1
PAYNESVILLE    LGT RAIN  74  65  72 W28G38    29.87R
AITKIN         RAIN      73  64  73 SW16G36   29.85R
PINE RIVER     CLOUDY    70  64  83 CALM      29.85F
BRAINERD         N/A    N/A N/A N/A MISG      29.83S
STAPLES        HVY RAIN  72  70  94 W8        29.83R
LITTLE FALLS   PTSUNNY   72  57  60 S8        29.83R
LITCHFIELD     MOSUNNY   82  66  57 S5        29.82S
BUFFALO        MOSUNNY   83  63  52 SW3       29.84S
MAPLE LAKE     MOSUNNY   80  68  67 S3        29.84S
HUTCHINSON     CLOUDY    79  67  66 S6        29.84F
$$
MNZ037-044-045-052-053-242300-
   East Central Minnesota

CITY           SKY/WX    TMP DP  RH WIND       PRES   REMARKS
PRINCETON      MOSUNNY   84  68  58 S5        29.82F
MORA           MOSUNNY   77  64  65 S5        29.85F
RUSH CITY      PTSUNNY   76  71  84 CALM      29.84F
MOOSE LAKE     RAIN      75  66  73 S12G20    29.84S
HINCKLEY       FAIR      81  68  65 S6        29.85S
CLOQUET        CLOUDY    82  63  51 S5        29.85F
MCGREGOR       PTSUNNY   81  64  57 S14       29.82F
$$
MNZ071>073-080-081-089-090-097-098-242300-
   Southwest Minnesota

CITY           SKY/WX    TMP DP  RH WIND       PRES   REMARKS
MONTEVIDEO     CLOUDY    72  68  88 NW7       29.86S
GRANITE FALLS  CLOUDY    72  66  82 W10       29.88R
CANBY          MOSUNNY   68  60  75 NW21      29.91R
MARSHALL       CLOUDY    73  64  73 W10       29.88R
REDWOOD FALLS  PTSUNNY   74  65  73 W15       29.86R
OLIVIA         HVY RAIN  70  64  83 W10G35    29.87R
PIPESTONE      MOSUNNY   68  61  77 NW12G18   29.92R
WORTHINGTON    CLOUDY    70  66  87 SW3       29.91R
JACKSON        CLOUDY    73  63  68 W16G22    29.90R
TRACY          CLOUDY    74  66  77 W7        29.89R
SLAYTON        CLOUDY    71  60  66 W8        29.90R
$$
MNZ065>067-074>077-082>085-091>093-242300-
   South Central Minnesota

CITY           SKY/WX    TMP DP  RH WIND       PRES   REMARKS
MANKATO        MOSUNNY   87  62  43 S12       29.85S
NEW ULM        MOSUNNY   86  59  39 S13G23    29.83R
ST JAMES       MOSUNNY   88  59  37 S16       29.85S
FAIRMONT       CLOUDY    87  62  43 S18       29.86S
FARIBAULT      SUNNY     88  59  37 SE14G21   29.87S
OWATONNA       SUNNY     88  61  40 S10       29.88S
WASECA         MOSUNNY   86  55  35 S15       29.88S
ALBERT LEA     SUNNY     90  59  35 S9G16     29.89S
$$
MNZ078>079-086>088-094>096-242300-
   Southeast Minnesota

CITY           SKY/WX    TMP DP  RH WIND       PRES   REMARKS
ROCHESTER      MOSUNNY   86  61  42 S12G20    29.92F
RED WING       MOSUNNY   90  55  31 S7        29.86F
STANTON        SUNNY     88  60  39 S14       29.85F
DODGE CENTER   SUNNY     88  55  33 S13G20    29.90F
WINONA         SUNNY     90  61  37 S3        29.90F
AUSTIN         SUNNY     84  61  45 S8G16     29.90F
PRESTON        MOSUNNY   86  60  40 S12       29.93F
$$
ABBREVIATIONS USED IN REMARKS
   TC - TEMPERATURES IN CELSIUS
  WCI - WIND CHILL INDEX
   HX - HEAT INDEX
  VSB - VISIBILITY
$$



USA.gov is the U.S. government's official web portal to all federal, state and local government web resources and services.